Home > Weather > Ann Arbor > Past weeks

Flag for U.S.A. Weather for the Past 2 Weeks in Ann Arbor, Michigan, U.S.A.

Now
17 °F

Overcast.


Feels Like: 4 °F
Forecast: 10 / 21 °F
Wind: 13 mph from Northwest

Location: Ann Arbor Municipal Airport

Current Time: Feb 10, 2016 at 8:42:51 PM

Latest Report: Feb 10, 2016 at 7:53 PM


Visibility: 10 mi

Pressure: 29.99 "Hg

Humidity: 64%

Dew point: 7 °F

Location of Ann ArborLocation

Historic Weather in Ann Arbor — Graph

°F

Ann Arbor Temperature Yesterday

Maximum temperature yesterday: 32 °F (at 1:00 AM)
Minimum temperature yesterday: 24 °F (at 10:53 PM)
Average temperature yesterday: 28 °F

High & Low Weather Summary for the Past Weeks

 TemperatureHumidityPressure
High54 °F (Feb 3, 3:53 AM)100% (Jan 30, 10:53 PM)30.38 "Hg (Jan 30, 10:53 PM)
Low17 °F (Feb 5, 2:53 AM)48% (Feb 10, 3:53 PM)29.45 "Hg (Feb 3, 4:53 AM)
Average32 °F77%29.89 "Hg
* Reported Jan 26 6:53 PM — Feb 10 6:53 PM, Ann Arbor, Weather by CustomWeather, © 2016

Note: Actual official high and low records may vary slightly from our data, if they occured in-between our weather recording intervals... More about our weather records

Advertising

Ann Arbor Weather History for the Previous 24 Hours

 ConditionsComfort  
Time TempWeatherWind HumidityBarometerVisibility
6:53 PM
Wed, Feb 10
17 °FLight snow. Mostly cloudy.9 mph74%29.96 "Hg9 mi
5:53 PM19 °FMore clouds than sun.12 mph57%29.94 "Hg10 mi
4:53 PM19 °FOvercast.13 mph52%29.91 "Hg10 mi
3:53 PM20 °FOvercast.16 mph48%29.88 "Hg10 mi
2:53 PM20 °FOvercast.13 mph55%29.86 "Hg10 mi
1:53 PM20 °FOvercast.17 mph57%29.86 "Hg10 mi
12:53 PM19 °FLight snow. More clouds than sun.14 mph62%29.87 "Hg4 mi
11:53 AM20 °FOvercast.14 mph57%29.88 "Hg10 mi
10:53 AM20 °FOvercast.16 mph55%29.87 "Hg10 mi
9:53 AM19 °FLight snow. Mostly cloudy.15 mph74%29.85 "Hg4 mi
8:56 AM19 °FMostly cloudy.16 mph71%29.79 "Hg9 mi
7:53 AM18 °FLight snow. Ice fog.13 mph84%29.82 "Hg2 mi
6:53 AM18 °FMostly cloudy.10 mph80%29.80 "Hg8 mi
5:53 AM20 °FMostly cloudy.16 mph74%29.79 "Hg10 mi
4:53 AM21 °FLight snow. Mostly cloudy.13 mph74%29.76 "Hg9 mi
3:53 AM22 °FOvercast.16 mph75%29.75 "Hg10 mi
2:53 AM22 °FMostly cloudy.13 mph78%29.75 "Hg10 mi
1:53 AM23 °FMostly cloudy.14 mph78%29.75 "Hg10 mi
12:53 AM23 °FLight snow. Mostly cloudy.12 mph81%29.75 "Hg5 mi
11:53 PM
Tue, Feb 9
24 °FOvercast.14 mph75%29.75 "Hg10 mi
10:53 PM24 °FOvercast.14 mph77%29.75 "Hg10 mi
9:53 PM25 °FOvercast.16 mph75%29.74 "Hg10 mi
8:53 PM25 °FOvercast.14 mph75%29.74 "Hg10 mi
Weather by CustomWeather, © 2016

See weather overviewHow to use our weather pages